Time,TemperatureF,DewpointF,PressureIn,WindDirection,WindDirectionDegrees,WindSpeedMPH,WindSpeedGustMPH,Humidity,HourlyPrecipIn,Conditions,Clouds,dailyrainin,SoftwareType,DateUTC
2013-01-27 00:10:00,18.5,9.0,30.34,WNW,297,0.0,2.0,67,0.00,,,0.00,weatherlink.com 1.10,2013-01-27 05:10:00,
2013-01-27 00:25:00,18.3,9.0,30.35,WNW,297,1.0,2.0,68,0.00,,,0.00,weatherlink.com 1.10,2013-01-27 05:25:00,
2013-01-27 00:40:00,18.1,10.0,30.35,WNW,301,2.0,2.0,69,0.00,,,0.00,weatherlink.com 1.10,2013-01-27 05:40:00,
2013-01-27 00:55:00,17.9,10.0,30.35,WNW,301,0.0,2.0,70,0.00,,,0.00,weatherlink.com 1.10,2013-01-27 05:55:00,
2013-01-27 01:10:00,17.7,9.0,30.36,WNW,301,0.0,2.0,70,0.00,,,0.00,weatherlink.com 1.10,2013-01-27 06:10:00,
2013-01-27 01:26:00,17.5,10.0,30.36,WNW,301,0.0,2.0,71,0.00,,,0.00,weatherlink.com 1.10,2013-01-27 06:26:00,
2013-01-27 01:41:00,17.6,10.0,30.37,WNW,300,2.0,3.0,72,0.00,,,0.00,weatherlink.com 1.10,2013-01-27 06:41:00,
2013-01-27 01:56:00,17.8,10.0,30.37,NW,312,1.0,2.0,72,0.00,,,0.00,weatherlink.com 1.10,2013-01-27 06:56:00,
2013-01-27 02:26:00,17.8,10.0,30.38,West,279,0.0,3.0,72,0.00,,,0.00,weatherlink.com 1.10,2013-01-27 07:26:00,
2013-01-27 02:41:00,17.9,11.0,30.38,NW,304,1.0,4.0,73,0.00,,,0.00,weatherlink.com 1.10,2013-01-27 07:41:00,
2013-01-27 02:56:00,18.2,11.0,30.38,WNW,284,0.0,4.0,72,0.00,,,0.00,weatherlink.com 1.10,2013-01-27 07:56:00,
2013-01-27 03:11:00,18.1,11.0,30.38,West,271,0.0,2.0,72,0.00,,,0.00,weatherlink.com 1.10,2013-01-27 08:11:00,
2013-01-27 03:26:00,17.8,11.0,30.38,WNW,294,0.0,3.0,73,0.00,,,0.00,weatherlink.com 1.10,2013-01-27 08:26:00,
2013-01-27 03:41:00,17.6,10.0,30.38,WNW,290,0.0,2.0,73,0.00,,,0.00,weatherlink.com 1.10,2013-01-27 08:41:00,
2013-01-27 03:56:00,17.6,10.0,30.38,NW,304,0.0,4.0,73,0.00,,,0.00,weatherlink.com 1.10,2013-01-27 08:56:00,
2013-01-27 04:11:00,18.0,10.0,30.38,West,275,1.0,4.0,71,0.00,,,0.00,weatherlink.com 1.10,2013-01-27 09:11:00,
2013-01-27 04:26:00,17.8,10.0,30.38,West,267,1.0,3.0,71,0.00,,,0.00,weatherlink.com 1.10,2013-01-27 09:26:00,
2013-01-27 04:41:00,17.8,10.0,30.38,West,273,2.0,4.0,71,0.00,,,0.00,weatherlink.com 1.10,2013-01-27 09:41:00,
2013-01-27 04:56:00,17.9,10.0,30.38,WNW,285,1.0,5.0,71,0.00,,,0.00,weatherlink.com 1.10,2013-01-27 09:56:00,
2013-01-27 05:11:00,17.7,10.0,30.39,West,273,1.0,4.0,71,0.00,,,0.00,weatherlink.com 1.10,2013-01-27 10:11:00,
2013-01-27 05:26:00,17.5,10.0,30.39,West,266,1.0,4.0,72,0.00,,,0.00,weatherlink.com 1.10,2013-01-27 10:26:00,
2013-01-27 05:41:00,17.4,10.0,30.40,West,281,0.0,5.0,72,0.00,,,0.00,weatherlink.com 1.10,2013-01-27 10:41:00,
2013-01-27 05:56:00,17.3,10.0,30.40,West,281,0.0,2.0,72,0.00,,,0.00,weatherlink.com 1.10,2013-01-27 10:56:00,
2013-01-27 06:11:00,16.8,10.0,30.41,WNW,282,0.0,2.0,73,0.00,,,0.00,weatherlink.com 1.10,2013-01-27 11:11:00,
2013-01-27 06:26:00,16.4,9.0,30.41,WNW,290,0.0,1.0,73,0.00,,,0.00,weatherlink.com 1.10,2013-01-27 11:26:00,
2013-01-27 06:41:00,15.7,9.0,30.41,WNW,290,2.0,2.0,75,0.00,,,0.00,weatherlink.com 1.10,2013-01-27 11:41:00,
2013-01-27 06:56:00,15.4,9.0,30.42,WNW,286,0.0,3.0,76,0.00,,,0.00,weatherlink.com 1.10,2013-01-27 11:56:00,
2013-01-27 07:11:00,15.0,9.0,30.42,West,277,0.0,2.0,76,0.00,,,0.00,weatherlink.com 1.10,2013-01-27 12:11:00,
2013-01-27 07:26:00,15.2,9.0,30.43,West,259,0.0,3.0,77,0.00,,,0.00,weatherlink.com 1.10,2013-01-27 12:26:00,
2013-01-27 07:41:00,15.8,10.0,30.43,WNW,296,0.0,6.0,76,0.00,,,0.00,weatherlink.com 1.10,2013-01-27 12:41:00,
2013-01-27 07:56:00,17.1,10.0,30.44,WSW,241,0.0,4.0,74,0.00,,,0.00,weatherlink.com 1.10,2013-01-27 12:56:00,
2013-01-27 08:11:00,18.6,11.0,30.45,WSW,258,0.0,4.0,71,0.00,,,0.00,weatherlink.com 1.10,2013-01-27 13:11:00,
2013-01-27 08:26:00,20.2,12.0,30.45,West,259,4.0,4.0,69,0.00,,,0.00,weatherlink.com 1.10,2013-01-27 13:26:00,
2013-01-27 08:41:00,21.0,12.0,30.45,West,267,0.0,4.0,68,0.00,,,0.00,weatherlink.com 1.10,2013-01-27 13:41:00,
2013-01-27 08:56:00,22.1,13.0,30.45,SW,229,5.0,5.0,67,0.00,,,0.00,weatherlink.com 1.10,2013-01-27 13:56:00,
2013-01-27 09:11:00,23.8,14.0,30.46,West,277,1.0,4.0,65,0.00,,,0.00,weatherlink.com 1.10,2013-01-27 14:11:00,
2013-01-27 09:27:00,25.3,14.0,30.46,West,261,1.0,6.0,63,0.00,,,0.00,weatherlink.com 1.10,2013-01-27 14:27:00,
2013-01-27 09:42:00,26.1,14.0,30.47,WNW,286,3.0,9.0,61,0.00,,,0.00,weatherlink.com 1.10,2013-01-27 14:42:00,
2013-01-27 09:57:00,26.6,15.0,30.47,SW,225,3.0,7.0,61,0.00,,,0.00,weatherlink.com 1.10,2013-01-27 14:57:00,
2013-01-27 10:12:00,27.5,15.0,30.48,NW,313,6.0,7.0,60,0.00,,,0.00,weatherlink.com 1.10,2013-01-27 15:12:00,
2013-01-27 10:27:00,28.2,15.0,30.48,WNW,290,3.0,8.0,58,0.00,,,0.00,weatherlink.com 1.10,2013-01-27 15:27:00,
2013-01-27 10:42:00,28.9,14.0,30.48,WNW,285,12.0,16.0,54,0.00,,,0.00,weatherlink.com 1.10,2013-01-27 15:42:00,
2013-01-27 10:57:00,29.8,14.0,30.48,NW,311,0.0,13.0,53,0.00,,,0.00,weatherlink.com 1.10,2013-01-27 15:57:00,
2013-01-27 11:12:00,30.8,14.0,30.48,NW,310,4.0,6.0,50,0.00,,,0.00,weatherlink.com 1.10,2013-01-27 16:12:00,
2013-01-27 11:27:00,31.6,14.0,30.46,NNW,344,5.0,8.0,48,0.00,,,0.00,weatherlink.com 1.10,2013-01-27 16:27:00,
2013-01-27 11:42:00,32.1,14.0,30.45,NW,323,2.0,8.0,47,0.00,,,0.00,weatherlink.com 1.10,2013-01-27 16:42:00,
2013-01-27 11:57:00,32.5,14.0,30.45,North,355,1.0,10.0,47,0.00,,,0.00,weatherlink.com 1.10,2013-01-27 16:57:00,
2013-01-27 12:12:00,33.0,14.0,30.45,WNW,282,2.0,12.0,45,0.00,,,0.00,weatherlink.com 1.10,2013-01-27 17:12:00,
2013-01-27 12:27:00,33.4,13.0,30.44,NNW,329,3.0,6.0,44,0.00,,,0.00,weatherlink.com 1.10,2013-01-27 17:27:00,
2013-01-27 12:42:00,33.1,13.0,30.43,NNW,328,2.0,6.0,43,0.00,,,0.00,weatherlink.com 1.10,2013-01-27 17:42:00,
2013-01-27 12:57:00,33.2,12.0,30.42,WNW,299,2.0,7.0,42,0.00,,,0.00,weatherlink.com 1.10,2013-01-27 17:57:00,
2013-01-27 13:12:00,33.9,13.0,30.42,NNW,342,4.0,6.0,42,0.00,,,0.00,weatherlink.com 1.10,2013-01-27 18:12:00,
2013-01-27 13:27:00,34.0,14.0,30.42,North,360,3.0,6.0,44,0.00,,,0.00,weatherlink.com 1.10,2013-01-27 18:27:00,
2013-01-27 13:42:00,34.2,14.0,30.41,NW,306,5.0,9.0,44,0.00,,,0.00,weatherlink.com 1.10,2013-01-27 18:42:00,
2013-01-27 13:57:00,34.3,13.0,30.41,West,263,3.0,10.0,42,0.00,,,0.00,weatherlink.com 1.10,2013-01-27 18:57:00,
2013-01-27 14:12:00,34.6,14.0,30.41,West,275,1.0,7.0,43,0.00,,,0.00,weatherlink.com 1.10,2013-01-27 19:12:00,
2013-01-27 14:27:00,35.1,14.0,30.42,North,350,3.0,8.0,42,0.00,,,0.00,weatherlink.com 1.10,2013-01-27 19:27:00,
2013-01-27 14:42:00,35.4,14.0,30.41,North,355,5.0,7.0,41,0.00,,,0.00,weatherlink.com 1.10,2013-01-27 19:42:00,
2013-01-27 14:57:00,35.8,15.0,30.41,North,355,3.0,6.0,42,0.00,,,0.00,weatherlink.com 1.10,2013-01-27 19:57:00,
2013-01-27 15:12:00,35.5,14.0,30.41,WNW,283,1.0,5.0,42,0.00,,,0.00,weatherlink.com 1.10,2013-01-27 20:12:00,
2013-01-27 15:27:00,35.6,14.0,30.41,SSW,211,1.0,6.0,41,0.00,,,0.00,weatherlink.com 1.10,2013-01-27 20:27:00,
2013-01-27 15:42:00,35.7,14.0,30.42,SW,232,1.0,8.0,41,0.00,,,0.00,weatherlink.com 1.10,2013-01-27 20:42:00,
2013-01-27 15:57:00,35.6,13.0,30.42,WNW,284,5.0,7.0,39,0.00,,,0.00,weatherlink.com 1.10,2013-01-27 20:57:00,
2013-01-27 16:12:00,35.3,14.0,30.42,West,271,0.0,7.0,41,0.00,,,0.00,weatherlink.com 1.10,2013-01-27 21:12:00,
2013-01-27 16:27:00,35.0,13.0,30.42,NW,309,0.0,2.0,41,0.00,,,0.00,weatherlink.com 1.10,2013-01-27 21:27:00,
2013-01-27 16:42:00,34.3,13.0,30.43,WSW,250,1.0,4.0,42,0.00,,,0.00,weatherlink.com 1.10,2013-01-27 21:42:00,
2013-01-27 16:57:00,33.7,12.0,30.44,WNW,284,1.0,5.0,41,0.00,,,0.00,weatherlink.com 1.10,2013-01-27 21:57:00,
2013-01-27 17:12:00,33.1,11.0,30.44,WSW,255,1.0,6.0,40,0.00,,,0.00,weatherlink.com 1.10,2013-01-27 22:12:00,
2013-01-27 17:27:00,32.5,11.0,30.44,WNW,297,1.0,4.0,41,0.00,,,0.00,weatherlink.com 1.10,2013-01-27 22:27:00,
2013-01-27 17:42:00,32.0,13.0,30.44,West,265,0.0,3.0,45,0.00,,,0.00,weatherlink.com 1.10,2013-01-27 22:42:00,
2013-01-27 17:57:00,31.2,12.0,30.44,West,265,0.0,0.0,45,0.00,,,0.00,weatherlink.com 1.10,2013-01-27 22:57:00,
2013-01-27 18:12:00,30.4,13.0,30.45,West,265,0.0,0.0,48,0.00,,,0.00,weatherlink.com 1.10,2013-01-27 23:12:00,
2013-01-27 18:27:00,29.6,13.0,30.45,West,265,0.0,2.0,50,0.00,,,0.00,weatherlink.com 1.10,2013-01-27 23:27:00,
2013-01-27 18:42:00,29.0,13.0,30.46,West,265,0.0,1.0,51,0.00,,,0.00,weatherlink.com 1.10,2013-01-27 23:42:00,
2013-01-27 18:57:00,28.5,13.0,30.45,West,265,0.0,0.0,53,0.00,,,0.00,weatherlink.com 1.10,2013-01-27 23:57:00,
2013-01-27 19:12:00,27.9,14.0,30.45,West,265,0.0,0.0,55,0.00,,,0.00,weatherlink.com 1.10,2013-01-28 00:12:00,
2013-01-27 19:42:00,27.1,14.0,30.45,West,265,0.0,0.0,58,0.00,,,0.00,weatherlink.com 1.10,2013-01-28 00:42:00,
2013-01-27 19:57:00,26.8,14.0,30.44,West,265,0.0,0.0,58,0.00,,,0.00,weatherlink.com 1.10,2013-01-28 00:57:00,
2013-01-27 20:12:00,26.3,14.0,30.44,West,265,0.0,0.0,61,0.00,,,0.00,weatherlink.com 1.10,2013-01-28 01:12:00,
2013-01-27 20:28:00,25.8,15.0,30.45,West,265,0.0,0.0,63,0.00,,,0.00,weatherlink.com 1.10,2013-01-28 01:28:00,
2013-01-27 20:43:00,25.4,15.0,30.45,West,265,0.0,0.0,64,0.00,,,0.00,weatherlink.com 1.10,2013-01-28 01:43:00,
2013-01-27 20:58:00,24.9,15.0,30.46,West,265,0.0,1.0,65,0.00,,,0.00,weatherlink.com 1.10,2013-01-28 01:58:00,
2013-01-27 21:13:00,24.6,15.0,30.46,West,265,0.0,0.0,66,0.00,,,0.00,weatherlink.com 1.10,2013-01-28 02:13:00,
2013-01-27 21:28:00,24.3,15.0,30.45,West,265,0.0,0.0,67,0.00,,,0.00,weatherlink.com 1.10,2013-01-28 02:28:00,
2013-01-27 21:43:00,24.0,15.0,30.45,West,265,0.0,0.0,68,0.00,,,0.00,weatherlink.com 1.10,2013-01-28 02:43:00,
2013-01-27 21:58:00,23.8,15.0,30.45,West,265,0.0,0.0,69,0.00,,,0.00,weatherlink.com 1.10,2013-01-28 02:58:00,
2013-01-27 22:13:00,23.6,15.0,30.45,West,265,0.0,0.0,69,0.00,,,0.00,weatherlink.com 1.10,2013-01-28 03:13:00,
2013-01-27 22:28:00,23.2,15.0,30.44,West,265,0.0,0.0,71,0.00,,,0.00,weatherlink.com 1.10,2013-01-28 03:28:00,
2013-01-27 22:43:00,23.0,15.0,30.44,West,265,0.0,0.0,71,0.00,,,0.00,weatherlink.com 1.10,2013-01-28 03:43:00,
2013-01-27 22:58:00,22.6,15.0,30.44,West,265,0.0,0.0,72,0.00,,,0.00,weatherlink.com 1.10,2013-01-28 03:58:00,
2013-01-27 23:13:00,22.4,15.0,30.43,West,265,0.0,0.0,73,0.00,,,0.00,weatherlink.com 1.10,2013-01-28 04:13:00,
2013-01-27 23:28:00,22.0,15.0,30.43,West,265,0.0,0.0,74,0.00,,,0.00,weatherlink.com 1.10,2013-01-28 04:28:00,
2013-01-27 23:43:00,22.1,15.0,30.44,West,265,0.0,0.0,75,0.00,,,0.00,weatherlink.com 1.10,2013-01-28 04:43:00,
2013-01-27 23:58:00,21.8,15.0,30.44,West,265,0.0,0.0,75,0.00,,,0.00,weatherlink.com 1.10,2013-01-28 04:58:00,